Location: ??????
(41.3164°N, 22.6615°E)
Time: 20:11:14
(UTC+00:00)

N. Korean satellite - Visible Passes

Search period start: 16 January 2022 00:00
Search period end: 26 January 2022 00:00
Orbit: 446 x 492 km, 97.3° (Epoch: 16 January)

Date Brightness Start Highest point End Pass type
(mag) Time Alt. Az. Time Alt. Az. Time Alt. Az.
16 Jan10.303:01:06SSE03:01:06SSE02:52:20NNEvisible
16 Jan9.204:35:07SW04:35:07SW04:26:25Nvisible
17 Jan 9.2 03:57:20 10° N 04:05:52 - SSW 03:57:21 10° N visible
17 Jan 10.2 16:06:53 10° WSW 16:07:42 11° W 16:08:32 10° WNW visible
18 Jan 9.5 03:36:32 - S 03:36:32 - S 03:28:16 10° NNE visible
19 Jan10.003:07:12SSE03:07:12SSE02:59:11NEvisible
19 Jan 8.8 04:32:48 10° NNW 04:33:15 12° NNW 04:33:15 12° NNW visible
20 Jan 8.6 04:03:11 10° N 04:11:52 - SSW 04:04:08 17° N visible
21 Jan 8.8 03:34:01 10° NNE 03:42:28 - S 03:35:01 18° NNE visible
22 Jan 9.5 03:05:18 10° NE 03:13:02 - SSE 03:05:54 13° NE visible
22 Jan 8.3 04:38:40 10° NNW 04:39:58 16° NW 04:39:58 16° NW visible
23 Jan10.202:43:34SE02:43:34SE02:36:47ENEvisible
23 Jan 7.8 04:08:52 10° N 04:17:36 - SSW 04:10:50 27° NNW visible
24 Jan 7.8 03:39:33 10° NNE 03:48:07 - S 03:41:42 34° NNE visible
25 Jan 8.8 03:10:39 10° NE 03:18:35 - SSE 03:12:32 23° ENE visible
25 Jan 8.1 04:44:21 10° NNW 04:46:36 17° WNW 04:46:36 17° WNW visible
